Location: Asco
(37.6830°N, 121.8727°W)
Time: 13:37:17
(UTC+00:00)

Daily predictions for brighter satellites

Satellite Brightness Start Highest point End
(mag) Time Altitude Azimuth Time Altitude Azimuth Time Altitude Azimuth
Cosmos 1933 Rocket 4.3 12:08:20 10° NNW 12:12:11 32° W 12:16:00 10° SSW
Cosmos 1867 3.8 12:08:30 10° NW 12:13:41 46° WSW 12:18:50 10° S
Intelsat 5-1 Rocket 4.1 12:11:10 10° SSW 12:14:28 20° SSE 12:20:12 10° ESE
AQUA 3.9 12:10:09 10° N 12:14:44 58° WNW 12:19:19 10° SSW
Cosmos 1400 Rocket 2.8 12:13:38 10° NNW 12:17:19 52° W 12:20:59 10° S
USA 307 4.2 12:17:37 10° W 12:19:16 13° SW 12:21:01 10° SSW
ADEOS II 3.3 12:15:45 10° NNW 12:19:54 25° WNW 12:24:03 10° WSW
Cosmos 1844 Rocket 4.5 12:17:13 10° W 12:20:41 17° NW 12:24:09 10° NNW
Cosmos 1833 Rocket 4.2 12:16:54 10° N 12:22:15 43° ENE 12:27:35 10° SE
Cosmos 1680 Rocket 4.0 12:17:26 10° S 12:22:35 63° ESE 12:27:43 10° NNE
SL-24 DEB 4.2 12:18:24 10° S 12:22:55 89° W 12:27:25 10° N
H-2A R/B 4.0 12:22:34 10° WSW 12:24:10 13° W 12:25:46 10° WNW
SL-08 RB Rocket 3.8 12:21:41 10° N 12:26:10 64° WNW 12:30:39 10° SSW
Resurs 1-4 Rocket 4.0 12:23:56 10° NNW 12:26:37 14° WNW 12:29:17 10° W
Cosmos 1603 4.3 12:22:52 10° NW 12:28:05 37° WSW 12:33:16 10° S
Cosmos 44 Rocket 3.7 12:29:55 10° NNW 12:35:06 77° ENE 12:40:07 10° SE
